Location: Drummondville
(45.8830°N, 72.4830°W)
Time: 11:09:39
(UTC-05:00)

N. Korean satellite - Pass Details

Date: 19 November 2017
Orbit: 460 x 515 km, 97.2° (Epoch: 18 November)

Event Time Altitude Azimuth Distance (km) Brightness Sun altitude
Rises 16:50:16 0° 132° (SE) 2,495 9.9 -6.5°
Reaches altitude 10° 16:52:40 10° 115° (ESE) 1,632 8.8 -6.9°
Maximum altitude 16:55:17 20° 67° (ENE) 1,154 7.8 -7.3°
Drops below altitude 10° 16:57:56 10° 18° (NNE) 1,663 8.9 -7.7°
Sets 17:00:24 0° 2° (N) 2,560 10.0 -8.1°
